Temperature
8 6 6 7 7 8 8 7 7 7 7 6 5 5 6 4 4 3 4 4 4 5 6 5 5 5 5 5 5 5 5 4 4 4 4 4 4 4 4 4 4 4 4 4
6 6 7 7 7 8 8 7 7 7 6 6 5 5 5 4 3 4 4 4 4 4 4 4 4 4 4 4 4 4 4 4 4 4 4 4 4 4 4 4 4 4 4 4
7 7 7 7 7 7 7 7 7 7 6 6 5 5 5 4 4 4 4 4 5 5 5 4 4 4 4 4 4 4 4 3 3 3 3 3 3 3 3 3 3 3 3 3
6 6 7 7 7 7 7 6 7 6 6 5 5 5 5 4 3 3 3 3 4 5 5 4 4 4 4 4 4 3 3 3 3 3 3 2 2 2 3 3 2 2 2 2
6 6 6 6 6 6 6 6 6 6 5 4 4 4 5 4 4 4 3 4 4 5 4 4 4 4 4 4 3 3 3 3 2 2 2 2 2 2 2 2 2 2 2 2
5 6 6 6 6 6 5 5 4 4 4 4 4 4 5 3 4 4 4 4 4 4 4 4 4 4 3 3 3 2 2 2 2 2 1 1 1 1 1 1 1 1 1 1
5 5 5 6 6 5 5 5 5 5 4 4 4 4 4 4 3 4 4 4 4 4 4 3 3 3 3 2 2 2 2 2 2 1 1 1 1 1 1 1 1 1 1 1
5 5 5 5 5 5 4 5 5 5 4 4 3 3 4 3 2 3 3 3 3 3 3 3 3 2 2 2 2 2 1 1 1 1 1 0 0 0 0 -0 -0 -0 -0 -0
4 5 4 4 5 5 4 4 4 4 3 3 3 2 2 2 2 2 1 2 2 3 3 2 2 2 2 2 2 1 1 1 1 0 0 0 -0 -0 -0 -1 -1 -1 -1 -1
4 4 4 4 4 4 4 3 3 3 4 4 4 3 3 3 3 2 1 0 1 2 2 2 1 1 1 1 1 1 1 0 0 0 -0 -0 -1 -1 -1 -1 -1 -1 -1 -1
3 3 3 3 3 4 3 3 3 2 2 3 3 4 3 3 2 1 0 1 1 1 1 1 1 1 0 0 0 0 -0 -0 -0 -0 -1 -1 -1 -1 -1 -1 -1 -2 -2 -2
2 2 2 2 3 3 3 3 2 3 2 1 2 3 2 1 1 0 -0 1 1 1 1 1 1 0 -0 -0 -0 -0 -1 -1 -1 -1 -1 -1 -1 -2 -2 -2 -2 -2 -2 -2
2 2 2 3 3 2 2 2 2 2 1 0 1 3 1 0 0 0 -0 0 1 1 0 0 -0 -1 -1 -1 -1 -1 -1 -1 -1 -1 -1 -2 -2 -2 -2 -2 -2 -3 -3 -3
3 1 2 3 4 2 1 1 1 1 1 0 1 2 2 1 -0 -0 -0 -0 0 -0 -0 -0 -1 -1 -1 -1 -1 -1 -2 -1 -2 -2 -2 -2 -2 -2 -2 -3 -3 -3 -3 -3
2 1 1 1 2 1 1 2 1 1 1 1 1 1 2 1 -0 -1 -0 -1 -1 -1 -1 -1 -1 -2 -2 -2 -2 -2 -2 -2 -2 -2 -2 -2 -3 -3 -3 -3 -3 -3 -4 -4
0 0 0 0 1 1 1 1 1 1 1 0 1 1 -0 -0 -1 -1 -1 -2 -2 -2 -2 -2 -2 -2 -2 -2 -2 -2 -2 -2 -3 -3 -3 -3 -3 -3 -4 -4 -4 -4 -4 -4
-1 -1 -0 -0 -0 0 0 0 0 0 -0 -0 0 0 -1 -2 -2 -2 -2 -2 -2 -2 -2 -2 -2 -2 -2 -2 -3 -3 -3 -3 -3 -3 -3 -3 -4 -4 -4 -4 -4 -4 -5 -5
-1 -1 -1 -1 -1 -0 1 -1 -0 -0 -1 -2 -1 -2 -2 -2 -3 -2 -2 -2 -2 -3 -3 -3 -3 -3 -3 -3 -3 -3 -3 -3 -3 -4 -4 -4 -4 -4 -4 -5 -5 -5 -5 -5
-2 -1 -2 -2 -2 -1 -1 -1 -2 -2 -1 -2 -3 -3 -3 -3 -3 -3 -3 -3 -3 -3 -3 -3 -3 -3 -3 -3 -4 -4 -4 -4 -4 -4 -4 -4 -5 -5 -5 -5 -5 -5 -6 -6
-3 -2 -2 -2 -1 -1 -0 -2 -2 -2 -2 -3 -3 -4 -4 -4 -4 -4 -3 -3 -3 -3 -3 -3 -3 -4 -4 -4 -4 -4 -4 -4 -5 -5 -5 -5 -5 -5 -6 -6 -6 -6 -6 -6
-3 -3 -3 -3 -2 -2 -3 -3 -2 -1 -2 -3 -3 -4 -5 -5 -5 -5 -4 -4 -4 -4 -4 -4 -4 -4 -5 -5 -5 -5 -5 -5 -5 -5 -5 -6 -6 -6 -6 -6 -6 -6 -7 -7
-3 -3 -4 -3 -3 -2 -4 -4 -3 -4 -4 -4 -4 -4 -5 -5 -5 -5 -5 -5 -5 -5 -5 -5 -5 -5 -5 -6 -6 -6 -6 -6 -6 -6 -6 -6 -7 -7 -7 -7 -7 -7 -7 -7
-4 -4 -4 -3 -3 -4 -5 -4 -4 -4 -4 -5 -5 -5 -5 -6 -6 -6 -6 -6 -6 -6 -6 -6 -6 -6 -6 -6 -7 -7 -7 -7 -7 -7 -7 -7 -7 -7 -8 -8 -8 -8 -8 -8
-6 -6 -5 -5 -5 -5 -5 -5 -5 -5 -5 -5 -5 -6 -6 -6 -6 -6 -7 -7 -6 -7 -7 -7 -7 -7 -7 -7 -7 -7 -7 -7 -7 -7 -8 -8 -8 -8 -8 -8 -8 -8 -9 -9
-6 -6 -6 -6 -6 -6 -6 -5 -5 -6 -6 -6 -6 -6 -6 -7 -7 -7 -7 -7 -7 -7 -7 -7 -7 -7 -8 -8 -8 -8 -8 -8 -8 -8 -8 -9 -9 -9 -9 -9 -9 -9 -9 -9
-8 -7 -6 -6 -6 -7 -7 -6 -6 -6 -6 -7 -7 -7 -7 -7 -7 -7 -8 -8 -8 -8 -8 -8 -8 -8 -8 -8 -8 -9 -9 -9 -9 -9 -9 -9 -9 -9 -10 -10 -10 -10 -10 -10
Wind_Speed
2 3 6 9 9 4 5 5 6 5 2 4 7 10 10 5 6 7 7 7 8 9 6 6 6 6 6 5 5 5 5 4 4 2 2 2 1 1 2 3 4 4 4 5
3 5 7 4 4 3 4 5 5 3 0 3 5 10 9 6 7 8 9 10 10 7 5 6 7 7 8 7 7 6 6 5 5 3 2 1 2 1 1 2 4 4 4 4
7 3 3 5 4 5 6 7 6 4 2 1 3 8 7 5 5 6 7 8 8 10 10 9 9 9 8 8 8 7 7 6 5 4 3 3 3 2 2 2 2 4 4 4
4 3 3 4 5 6 7 5 5 4 2 4 2 6 7 5 6 7 8 8 9 9 9 9 10 10 10 9 8 7 7 6 6 5 5 5 2 1 1 0 1 2 3 4
4 2 4 6 6 7 4 2 3 3 4 3 3 5 9 2 6 9 9 10 10 9 10 11 11 11 9 8 8 7 7 6 6 6 6 5 3 1 1 1 1 1 2 3
3 2 3 4 2 5 4 4 4 4 3 5 7 7 9 5 7 7 7 8 8 8 8 8 8 7 6 6 7 7 7 6 6 6 5 5 5 4 3 1 1 0 1 2
3 3 2 2 3 2 4 4 1 2 2 7 4 6 10 6 6 6 7 6 6 6 7 7 8 8 8 8 8 7 8 6 6 6 5 5 5 5 5 3 2 1 0 1
3 5 4 3 4 5 5 6 6 6 6 5 2 8 8 4 3 4 4 4 3 4 5 7 8 9 9 9 8 8 8 6 6 6 5 4 4 4 3 3 2 2 2 2
4 5 1 1 1 6 5 5 4 4 1 4 7 7 8 2 3 3 2 1 2 3 4 5 6 7 8 8 8 9 8 6 6 6 5 4 4 4 3 2 2 2 1 1
4 4 2 1 2 1 3 6 4 4 4 6 6 6 5 5 5 4 3 3 3 2 2 3 4 5 6 7 6 6 7 7 6 5 5 4 3 3 3 3 2 2 1 1
2 3 2 1 5 6 5 4 4 4 4 5 5 7 4 5 4 4 5 4 3 2 3 3 3 4 4 5 5 5 5 5 5 4 4 4 3 3 3 2 2 2 2 2
2 3 3 5 2 1 5 6 7 5 6 5 4 7 2 2 2 2 3 3 2 1 2 3 3 4 5 5 5 5 5 5 4 4 4 3 3 3 2 2 2 2 2 2
3 3 1 3 1 1 2 3 3 3 2 5 5 8 2 2 2 1 1 2 1 1 2 2 3 4 5 5 5 4 4 4 4 4 4 3 3 3 3 2 2 2 2 2
2 4 6 8 5 3 4 5 4 4 5 6 9 10 7 6 6 4 3 1 0 1 2 3 3 3 3 4 4 4 3 3 3 3 3 3 3 3 3 2 2 2 2 2
3 4 5 7 5 4 6 8 8 10 9 9 9 10 9 6 6 4 3 1 0 1 1 2 2 2 3 3 3 3 2 2 3 3 3 3 2 2 2 2 2 2 2 2
2 3 2 4 4 4 7 9 10 11 9 10 10 11 5 3 2 2 2 2 2 1 1 2 2 2 2 3 3 3 2 2 2 3 2 2 2 2 2 2 1 1 1 1
3 3 2 4 3 3 8 8 9 6 6 7 10 8 2 3 3 4 3 3 3 2 2 2 2 3 2 3 3 3 3 2 2 2 1 1 2 2 1 1 1 1 2 1
4 4 2 2 1 7 6 1 4 5 5 5 4 3 2 2 3 2 1 2 2 2 2 1 1 1 1 1 2 2 2 2 2 2 1 1 1 1 1 1 1 2 2 2
5 5 3 3 4 7 6 2 1 3 5 3 4 4 2 1 2 2 1 0 1 1 1 1 1 1 2 2 2 3 2 2 1 1 1 1 1 1 1 1 2 2 2 2
2 4 3 3 4 6 4 2 2 1 4 3 2 3 1 1 1 3 2 3 2 2 1 1 1 2 2 1 2 3 2 1 1 1 1 1 1 1 2 2 2 1 2 2
2 2 5 5 5 7 4 3 1 2 5 4 2 1 1 1 2 2 2 3 2 2 2 2 2 1 1 1 2 2 1 1 1 1 1 1 0 1 1 1 1 1 1 1
5 4 4 4 5 7 2 2 2 3 3 2 2 1 0 0 1 1 2 2 3 3 3 2 2 2 2 1 2 1 0 1 1 1 1 1 1 1 1 0 1 0 1 1
4 4 3 5 4 1 1 0 2 1 1 2 1 1 1 1 1 1 2 2 2 2 2 2 2 2 2 2 1 1 1 1 1 1 1 1 1 1 1 0 0 1 0 1
2 1 1 2 3 2 2 3 4 3 1 2 2 1 1 1 1 1 2 2 2 2 2 2 2 2 2 2 2 0 0 1 1 1 1 1 1 1 2 1 1 1 1 1
2 1 1 3 3 3 3 3 3 3 3 3 3 2 1 2 1 1 1 2 2 2 2 2 1 1 1 2 2 2 1 1 1 1 1 1 1 1 1 1 1 2 1 2
1 2 2 4 3 2 3 3 3 3 3 3 3 3 3 2 1 1 1 1 1 2 2 2 2 1 1 2 2 2 1 1 1 1 1 1 1 1 1 1 3 4 4 6
Wind_Direction
106 121 199 207 202 195 174 194 235 247 195 185 227 252 256 219 211 223 218 212 214 219 211 185 178 168 161 161 160 158 149 147 135 128 124 111 83 52 42 47 51 62 66 63
78 233 226 189 187 205 202 224 246 283 194 207 259 268 260 221 214 218 216 216 217 213 196 187 180 175 177 178 174 167 164 161 159 157 144 123 116 98 53 46 46 48 55 60
191 220 191 171 181 204 228 221 228 247 345 284 311 290 253 239 215 222 220 217 213 207 203 195 189 188 185 185 183 179 174 168 162 140 114 94 72 52 43 28 22 24 43 55
226 255 162 179 201 184 240 224 211 212 224 266 203 281 271 236 238 233 230 222 221 215 205 197 192 192 193 192 183 177 174 169 162 150 149 146 144 154 214 291 13 28 46 53
235 209 188 205 207 182 212 174 177 197 196 267 226 243 278 225 250 245 233 226 224 215 206 200 197 196 193 184 180 178 173 170 167 164 162 156 146 133 107 92 88 31 34 51
236 229 205 210 184 167 138 77 66 62 99 258 219 205 272 227 227 242 232 226 222 213 207 202 194 186 183 176 174 173 172 175 172 169 166 164 158 146 134 127 124 45 0 22
290 250 221 159 115 111 120 107 36 324 249 248 185 213 252 246 225 230 237 234 225 210 201 195 186 185 184 179 179 176 174 178 177 172 172 172 168 165 168 175 177 181 257 294
236 269 221 191 175 173 185 165 179 215 233 272 223 236 257 257 271 275 259 239 229 214 205 199 194 189 185 182 180 177 177 180 179 177 178 174 170 171 177 180 186 197 218 244
205 252 323 163 171 152 162 202 175 153 212 260 256 273 293 264 303 306 305 290 252 229 210 199 190 186 182 182 184 180 175 174 177 177 173 173 175 174 179 181 182 199 217 244
175 245 274 322 97 31 158 151 130 163 209 252 271 262 255 269 275 287 303 291 275 246 203 191 183 181 181 181 179 174 174 176 175 172 174 175 177 178 177 176 192 205 225 241
169 198 287 295 205 191 151 161 169 174 193 202 264 268 232 229 242 260 268 271 262 232 204 193 181 171 166 160 162 166 171 168 167 171 171 166 173 171 168 185 201 208 223 228
174 156 245 250 255 226 189 185 164 187 228 210 230 268 283 240 267 252 266 276 272 217 188 176 164 152 151 155 162 167 171 172 174 169 164 168 172 171 175 196 212 212 228 237
156 152 296 321 323 22 227 207 188 168 161 194 212 261 314 354 344 327 268 273 225 169 148 135 142 152 159 163 165 168 171 172 167 159 159 163 171 180 193 206 215 221 228 246
164 188 204 224 243 196 237 234 197 171 207 231 232 257 284 309 311 312 309 300 223 163 151 143 149 157 159 162 164 166 168 163 157 154 162 177 193 198 203 208 213 222 226 236
154 223 236 257 264 231 235 238 212 213 219 228 248 253 267 272 271 273 279 288 111 140 152 159 160 158 155 153 158 160 158 157 159 159 175 199 205 200 200 205 213 224 232 246
163 219 236 270 260 256 264 254 235 231 232 239 260 268 273 273 277 268 253 235 239 242 217 184 165 165 171 170 171 166 168 167 158 170 188 191 182 183 195 202 206 219 240 255
192 176 200 259 298 320 269 241 221 220 219 213 240 256 284 278 269 257 237 226 229 237 226 204 195 197 194 187 175 175 174 159 160 169 179 179 176 184 204 206 197 220 231 241
186 182 198 239 50 245 252 247 214 226 247 231 250 282 269 253 277 283 229 218 244 243 235 223 192 179 161 153 144 142 144 148 151 159 177 186 186 204 213 204 220 232 229 230
195 179 185 192 236 272 292 290 217 217 266 246 251 276 290 313 345 338 7 80 234 248 248 230 186 157 136 140 135 125 124 124 131 170 217 229 213 213 219 229 246 240 223 245
154 164 179 182 212 245 267 310 311 139 282 306 270 264 288 42 319 280 353 9 8 29 43 55 68 91 116 123 122 122 131 134 186 239 253 249 224 216 233 245 255 231 221 236
140 174 201 207 228 261 283 306 53 158 278 324 311 261 188 212 233 276 347 6 30 39 42 68 81 80 106 120 118 124 137 203 259 299 323 302 288 263 247 266 274 217 236 262
186 185 201 186 216 254 337 66 157 250 312 345 1 11 50 275 340 6 13 22 38 41 42 59 71 40 19 68 112 122 211 301 5 32 28 358 5 346 1 18 329 299 219 254
200 203 205 199 218 298 21 208 306 314 330 350 1 5 91 78 9 18 22 27 34 37 36 39 67 41 13 17 97 150 292 30 57 49 28 10 12 10 10 35 339 357 354 282
290 329 195 251 279 299 338 353 358 11 22 17 28 27 87 116 86 43 33 26 26 23 29 32 52 42 2 1 22 54 20 61 91 77 33 24 37 16 15 359 345 323 294 291
270 207 248 264 297 329 341 354 354 12 27 34 31 35 70 107 82 66 41 18 15 8 9 21 35 23 357 8 14 10 37 86 80 59 47 24 16 19 353 344 325 312 271 273
287 226 227 254 277 262 291 335 7 17 13 22 31 22 30 69 92 62 34 18 17 16 13 18 23 22 9 13 4 357 12 79 98 43 24 19 6 358 357 353 343 334 331 324
Height
1482 1487 1488 1488 1488 1488 1491 1495 1494 1493 1492 1495 1495 1492 1489 1489 1490 1490 1490 1491 1491 1493 1495 1498 1500 1502 1504 1506 1508 1509 1511 1513 1514 1515 1516 1517 1518 1520 1521 1522 1522 1522 1522 1523
1486 1486 1483 1485 1487 1489 1491 1492 1493 1493 1493 1494 1495 1491 1486 1485 1485 1485 1485 1486 1487 1489 1491 1493 1496 1497 1499 1501 1504 1506 1508 1509 1511 1513 1513 1515 1516 1517 1519 1519 1520 1520 1520 1520
1482 1483 1481 1484 1487 1489 1490 1491 1491 1493 1494 1494 1495 1489 1483 1480 1480 1480 1480 1481 1482 1484 1486 1488 1490 1493 1495 1497 1499 1501 1504 1506 1508 1509 1511 1512 1514 1515 1516 1516 1517 1518 1518 1518
1482 1481 1481 1482 1484 1486 1488 1487 1489 1491 1496 1498 1496 1494 1479 1478 1477 1476 1476 1476 1477 1479 1481 1483 1485 1488 1490 1492 1495 1498 1500 1503 1504 1506 1507 1509 1510 1511 1512 1514 1514 1515 1515 1515
1480 1479 1480 1480 1481 1483 1485 1485 1488 1490 1494 1498 1498 1498 1478 1476 1475 1472 1471 1471 1471 1473 1475 1477 1480 1482 1485 1488 1491 1494 1497 1499 1501 1503 1504 1506 1507 1509 1510 1511 1512 1512 1513 1513
1479 1478 1478 1478 1478 1480 1484 1487 1491 1495 1498 1498 1493 1497 1478 1475 1469 1466 1465 1466 1467 1469 1471 1473 1476 1479 1482 1484 1487 1490 1492 1495 1497 1499 1501 1502 1504 1505 1507 1508 1509 1509 1510 1510
1479 1477 1476 1476 1479 1481 1483 1489 1494 1496 1499 1491 1489 1488 1474 1465 1463 1462 1461 1462 1463 1465 1467 1469 1471 1474 1476 1479 1482 1485 1488 1490 1493 1495 1497 1499 1501 1502 1503 1505 1506 1506 1507 1507
1480 1480 1476 1475 1476 1480 1483 1483 1490 1494 1495 1491 1490 1486 1470 1463 1461 1460 1459 1459 1460 1461 1463 1465 1467 1469 1472 1475 1478 1481 1484 1486 1489 1491 1493 1496 1498 1499 1500 1502 1503 1504 1504 1504
1480 1478 1475 1474 1474 1476 1482 1485 1484 1492 1495 1495 1487 1481 1469 1461 1460 1459 1458 1458 1458 1459 1460 1462 1464 1466 1468 1471 1474 1477 1480 1483 1485 1488 1490 1492 1494 1496 1497 1498 1500 1500 1501 1501
1476 1479 1476 1475 1475 1476 1477 1481 1488 1489 1490 1487 1479 1477 1468 1460 1459 1459 1458 1457 1457 1457 1458 1460 1461 1463 1466 1468 1471 1474 1477 1479 1482 1484 1487 1489 1490 1492 1494 1495 1496 1496 1497 1498
1476 1479 1479 1477 1475 1475 1479 1481 1482 1487 1487 1486 1484 1470 1459 1457 1456 1457 1457 1456 1456 1456 1457 1458 1460 1462 1464 1466 1469 1471 1474 1476 1479 1481 1483 1485 1487 1489 1490 1491 1492 1493 1493 1494
1476 1480 1481 1477 1474 1473 1473 1474 1479 1483 1484 1487 1484 1471 1456 1456 1455 1455 1456 1455 1455 1455 1456 1457 1458 1460 1462 1464 1466 1469 1471 1473 1475 1477 1480 1482 1484 1485 1486 1487 1488 1489 1489 1490
1475 1479 1480 1474 1477 1477 1475 1475 1476 1478 1482 1487 1486 1468 1456 1456 1455 1455 1455 1454 1454 1454 1455 1455 1457 1458 1460 1462 1464 1466 1468 1470 1472 1474 1476 1478 1480 1481 1482 1483 1484 1485 1485 1485
1472 1476 1476 1472 1466 1472 1474 1473 1475 1478 1481 1480 1473 1461 1457 1456 1455 1454 1453 1453 1453 1453 1454 1454 1456 1457 1458 1460 1462 1464 1465 1467 1469 1471 1473 1474 1476 1477 1478 1479 1480 1481 1481 1481
1471 1474 1473 1470 1468 1469 1468 1467 1469 1471 1470 1470 1462 1460 1454 1455 1454 1453 1452 1452 1452 1453 1453 1454 1455 1456 1457 1458 1460 1461 1463 1465 1466 1468 1469 1470 1472 1473 1474 1475 1476 1476 1477 1477
1471 1473 1473 1471 1467 1467 1466 1463 1463 1463 1463 1463 1460 1456 1453 1453 1452 1452 1452 1451 1451 1451 1452 1452 1453 1454 1455 1456 1457 1459 1460 1462 1463 1464 1466 1467 1468 1469 1470 1471 1471 1472 1472 1472
1472 1473 1473 1471 1468 1466 1465 1459 1458 1458 1457 1457 1456 1453 1452 1451 1451 1451 1451 1450 1450 1450 1451 1451 1452 1453 1454 1455 1456 1457 1458 1459 1460 1461 1462 1463 1464 1465 1466 1466 1467 1467 1467 1467
1470 1471 1473 1474 1472 1470 1456 1454 1453 1453 1453 1454 1452 1451 1450 1450 1450 1449 1449 1449 1449 1449 1450 1450 1450 1451 1452 1453 1454 1455 1456 1457 1457 1458 1459 1460 1460 1461 1462 1462 1462 1463 1463 1463
1465 1469 1473 1474 1473 1464 1457 1454 1454 1455 1453 1451 1451 1450 1450 1449 1448 1448 1449 1449 1448 1448 1449 1449 1449 1449 1450 1451 1452 1453 1454 1454 1455 1455 1456 1456 1457 1457 1457 1457 1458 1458 1458 1459
1465 1467 1471 1473 1470 1464 1454 1454 1452 1454 1454 1450 1449 1449 1449 1449 1451 1450 1448 1447 1447 1447 1447 1447 1447 1448 1449 1450 1451 1451 1451 1452 1452 1453 1453 1453 1454 1454 1454 1454 1454 1454 1454 1454
1467 1468 1469 1470 1468 1460 1456 1454 1452 1458 1454 1451 1449 1448 1449 1449 1449 1448 1447 1446 1446 1446 1446 1446 1446 1447 1447 1448 1449 1449 1449 1450 1450 1451 1451 1451 1451 1451 1451 1451 1451 1451 1451 1451
1464 1466 1468 1468 1468 1462 1456 1454 1456 1456 1453 1451 1449 1449 1449 1448 1447 1446 1445 1445 1445 1444 1445 1445 1445 1445 1446 1447 1447 1447 1447 1448 1448 1448 1448 1448 1449 1449 1448 1448 1448 1447 1447 1447
1463 1462 1461 1461 1460 1458 1455 1455 1455 1453 1452 1451 1450 1449 1448 1447 1447 1446 1445 1445 1444 1444 1444 1444 1444 1444 1444 1445 1445 1445 1446 1446 1446 1446 1446 1446 1446 1446 1446 1445 1445 1444 1444 1444
1462 1461 1460 1460 1457 1456 1455 1454 1453 1452 1451 1451 1450 1449 1448 1447 1446 1446 1445 1445 1444 1444 1444 1443 1443 1443 1443 1443 1444 1444 1444 1444 1444 1444 1444 1444 1443 1443 1443 1443 1443 1442 1442 1442
1462 1461 1460 1459 1457 1455 1453 1453 1453 1452 1451 1450 1449 1449 1448 1447 1446 1446 1445 1444 1444 1444 1443 1443 1442 1442 1442 1442 1442 1442 1442 1442 1442 1441 1442 1441 1441 1441 1441 1441 1441 1441 1440 1440
1462 1462 1461 1458 1457 1457 1455 1453 1453 1452 1450 1449 1448 1447 1447 1447 1446 1445 1444 1444 1444 1443 1443 1442 1442 1442 1441 1441 1441 1441 1441 1441 1440 1440 1440 1439 1439 1439 1439 1439 1439 1439 1439 1438